1494565200.7,4730,11.81,72874.8,0.43,-0.57,-0.65,0,*7B
1494565201.86,4731,11.81,72884.3,0.43,-0.57,-0.69,0,*76
1494565203.03,4732,11.81,72892.0,0.43,-0.57,-0.77,0,*7A
1494565204.19,4733,11.81,72884.8,0.43,-0.65,-0.69,0,*75
1494565205.36,4734,11.81,72888.3,0.43,-0.57,-0.77,0,*7C
1494565206.55,4735,11.81,72878.3,0.41,-0.65,-0.77,0,*7E
1494565207.71,4736,11.81,72880.8,0.43,-0.65,-0.69,0,*70
1494565208.88,4737,11.81,72886.8,0.43,-0.57,-0.77,0,*7F
1494565210.04,4738,11.81,72886.8,0.43,-0.57,-0.77,0,*70
1494565211.21,4739,11.81,72890.0,0.43,-0.57,-0.77,0,*71
1494565212.38,4740,11.81,72882.5,0.43,-0.57,-0.77,0,*7F
1494565213.56,4741,11.81,72872.8,0.41,-0.57,-0.69,0,*73
1494565214.73,4742,11.81,72878.8,0.43,-0.65,-0.77,0,*7C
1494565215.89,4743,11.81,72884.3,0.43,-0.65,-0.77,0,*7D
1494565217.06,4744,11.81,72884.8,0.43,-0.65,-0.77,0,*7A
1494565218.25,4745,11.81,72886.0,0.41,-0.57,-0.77,0,*78
1494565219.41,4746,11.81,72888.3,0.43,-0.65,-0.77,0,*78
1494565220.58,4747,11.81,72886.8,0.43,-0.57,-0.77,0,*78
1494565221.74,4748,11.81,72890.3,0.43,-0.65,-0.69,0,*79
1494565222.91,4749,11.81,72884.3,0.43,-0.65,-0.77,0,*77
1494565224.08,4750,11.81,72890.5,0.43,-0.65,-0.77,0,*7F
1494565225.24,4751,11.81,72890.5,0.43,-0.65,-0.77,0,*7E
1494565226.41,4752,11.81,72888.0,0.45,-0.65,-0.73,0,*7F
1494565227.58,4753,11.81,72902.3,0.45,-0.61,-0.77,0,*7E
1494565228.74,4754,11.81,72906.5,0.45,-0.61,-0.77,0,*79
1494565229.91,4755,11.81,72902.8,0.45,-0.65,-0.77,0,*7C
1494565231.1,4756,11.81,72902.8,0.45,-0.65,-0.85,0,*72
1494565232.26,4757,11.81,72902.5,0.43,-0.69,-0.77,0,*74
1494565233.43,4758,11.81,72904.5,0.43,-0.77,-0.81,0,*7D
1494565234.6,4759,11.81,72918.0,0.45,-0.73,-0.77,0,*77
1494565235.78,4760,11.81,72900.3,0.45,-0.73,-0.77,0,*7D
1494565236.95,4761,11.81,72902.3,0.45,-0.65,-0.77,0,*7B
1494565238.13,4762,11.81,72908.3,0.45,-0.65,-0.85,0,*75
1494565239.31,4763,11.81,72918.3,0.45,-0.65,-0.77,0,*79
1494565240.48,4764,11.81,72918.5,0.45,-0.65,-0.77,0,*7E
1494565241.66,4765,11.81,72924.5,0.45,-0.65,-0.85,0,*72
1494565242.86,4766,11.81,72922.8,0.47,-0.73,-0.77,0,*79
1494565244.05,4767,11.81,72916.0,0.45,-0.73,-0.85,0,*77
1494565245.24,4768,11.81,72914.0,0.41,-0.69,-0.81,0,*73
1494565246.43,4769,11.81,72916.3,0.43,-0.77,-0.89,0,*77
1494565247.62,4770,11.81,72914.5,0.45,-0.73,-0.85,0,*71
1494565248.81,4771,11.81,72910.3,0.45,-0.65,-0.85,0,*77
1494565250.0,4772,11.81,72908.0,0.45,-0.73,-0.85,0,*73
1494565251.18,4773,11.81,72896.8,0.43,-0.77,-0.89,0,*7C
1494565252.37,4774,11.81,72898.5,0.43,-0.77,-0.89,0,*7B
1494565253.56,4775,11.81,72892.5,0.43,-0.81,-0.89,0,*73
1494565254.75,4776,11.81,72888.5,0.45,-0.77,-0.89,0,*7F
1494565255.94,4777,11.81,72888.3,0.45,-0.77,-0.85,0,*72
1494565257.13,4778,11.81,72884.8,0.45,-0.77,-0.85,0,*7D
1494565258.34,4779,11.81,72884.5,0.41,-0.81,-0.89,0,*7D
1494565259.52,4780,11.81,72890.8,0.43,-0.81,-0.93,0,*72
1494565260.71,4781,11.81,72890.5,0.43,-0.81,-0.93,0,*73
1494565261.9,4782,11.81,72896.5,0.43,-0.77,-0.89,0,*72
1494565263.08,4783,11.81,72892.8,0.43,-0.81,-0.89,0,*7A
1494565264.27,4784,11.81,72894.3,0.43,-0.81,-0.93,0,*76
1494565265.46,4785,11.81,72884.5,0.43,-0.81,-1.01,0,*4D
1494565266.65,4786,11.81,72890.5,0.43,-0.77,-0.93,0,*7D
1494565267.83,4787,11.81,72886.0,0.43,-0.77,-0.93,0,*7C
1494565269.02,4788,11.81,72884.8,0.43,-0.77,-0.93,0,*73
1494565270.2,4789,11.81,72886.8,0.43,-0.81,-0.93,0,*7B
1494565271.39,4790,11.81,72888.5,0.43,-0.77,-0.89,0,*71
1494565272.57,4791,11.81,72890.3,0.43,-0.77,-0.93,0,*7B
1494565273.76,4792,11.81,72900.0,0.43,-0.77,-0.89,0,*73
1494565274.93,4793,11.81,72892.0,0.45,-0.77,-0.77,0,*75
1494565276.12,4794,11.81,72900.3,0.45,-0.77,-0.85,0,*7F
1494565277.31,4795,11.81,72894.3,0.45,-0.77,-0.97,0,*7D
1494565278.5,4796,11.81,72880.0,0.45,-0.73,-0.85,0,*79
1494565279.69,4797,11.81,72868.0,0.45,-0.77,-0.89,0,*70
1494565280.9,4798,11.81,72898.0,0.45,-0.85,-0.89,0,*72
1494565282.09,4799,11.81,72904.3,0.43,-0.77,-1.01,0,*49
1494565283.28,4800,11.81,72908.0,0.45,-0.77,-0.85,0,*7D
1494565284.47,4801,11.81,72908.0,0.45,-0.77,-0.89,0,*70
1494565285.66,4802,11.81,72898.5,0.45,-0.77,-0.89,0,*73
1494565286.85,4803,11.81,72906.0,0.45,-0.77,-0.89,0,*72
1494565288.04,4804,11.81,72898.3,0.43,-0.81,-1.01,0,*4B
1494565289.23,4805,11.81,72894.5,0.43,-0.81,-0.93,0,*70
1494565290.42,4806,11.81,72884.0,0.43,-0.81,-0.93,0,*73
1494565291.6,4807,11.81,72888.0,0.43,-0.81,-0.93,0,*72
1494565292.79,4808,11.81,72896.0,0.43,-0.81,-0.93,0,*7D
1494565294.01,4809,11.81,72896.3,0.45,-0.85,-0.89,0,*75
1494565295.19,4810,11.81,72884.3,0.45,-0.77,-0.97,0,*7F
1494565296.38,4811,11.81,72890.5,0.43,-0.81,-0.93,0,*75
1494565297.57,4812,11.81,72892.5,0.45,-0.77,-0.97,0,*7D
1494565298.78,4813,11.81,72896.3,0.45,-0.85,-0.89,0,*7E
1494565299.97,4814,11.81,72896.8,0.43,-0.81,-0.89,0,*7B
1494565301.16,4815,11.81,72902.0,0.43,-0.77,-1.01,0,*42
1494565302.35,4816,11.81,72902.5,0.43,-0.77,-0.93,0,*7B
1494565303.53,4817,11.81,72898.3,0.43,-0.77,-0.93,0,*7A
1494565304.71,4818,11.81,72906.3,0.43,-0.69,-0.93,0,*7A
1494565305.9,4819,11.81,72892.0,0.43,-0.77,-0.93,0,*74
1494565307.09,4820,11.81,72892.5,0.45,-0.77,-0.85,0,*7F
1494565308.28,4821,11.81,72880.3,0.45,-0.77,-0.89,0,*72
1494565309.47,4822,11.81,72868.5,0.45,-0.77,-0.89,0,*71
1494565310.66,4823,11.81,72886.0,0.45,-0.77,-0.97,0,*7F
1494565311.87,4824,11.81,72898.8,0.45,-0.85,-0.97,0,*75
1494565313.06,4825,11.81,72902.3,0.45,-0.77,-0.89,0,*76
1494565314.25,4826,11.81,72906.0,0.45,-0.73,-0.85,0,*7D
1494565315.44,4827,11.81,72892.3,0.43,-0.77,-0.89,0,*72
1494565316.62,4828,11.81,72898.8,0.43,-0.77,-0.89,0,*7D
1494565317.81,4829,11.81,72890.0,0.45,-0.77,-0.85,0,*76
1494565318.98,4830,11.81,72876.5,0.45,-0.73,-0.77,0,*77
1494565320.18,4831,11.81,72886.5,0.45,-0.73,-0.85,0,*7B
1494565321.37,4832,11.81,72874.8,0.45,-0.73,-0.85,0,*78
1494565322.56,4833,11.81,72880.3,0.45,-0.77,-0.85,0,*7D
1494565323.75,4834,11.81,72876.3,0.45,-0.77,-0.89,0,*76
1494565324.94,4835,11.81,72870.0,0.45,-0.77,-0.97,0,*78
1494565326.13,4836,11.81,72874.5,0.45,-0.73,-0.89,0,*70
1494565327.32,4837,11.81,72882.5,0.45,-0.73,-0.89,0,*71
1494565328.51,4838,11.81,72878.5,0.43,-0.77,-1.01,0,*4D
1494565329.7,4839,11.81,72880.0,0.43,-0.77,-1.01,0,*4C
1494565330.89,4840,11.81,72884.0,0.43,-0.77,-0.93,0,*78
1494565332.08,4841,11.81,72894.5,0.43,-0.77,-1.01,0,*43
1494565333.26,4842,11.81,72896.5,0.43,-0.69,-0.89,0,*7E
1494565334.45,4843,11.81,72906.0,0.43,-0.77,-0.89,0,*70
1494565335.64,4844,11.81,72922.5,0.43,-0.77,-1.01,0,*46
1494565336.83,4845,11.81,72908.0,0.43,-0.81,-0.93,0,*74
1494565338.02,4846,11.81,72890.3,0.43,-0.77,-1.01,0,*44
1494565339.23,4847,11.81,72900.5,0.41,-0.81,-1.01,0,*4E
1494565340.43,4848,11.81,72914.5,0.43,-0.81,-1.01,0,*43
1494565341.62,4849,11.81,72904.8,0.45,-0.77,-0.97,0,*73
1494565342.81,4850,11.81,72908.8,0.43,-0.81,-1.01,0,*4A
1494565344.0,4851,11.81,72914.3,0.43,-0.69,-1.01,0,*4D
1494565345.19,4852,11.81,72910.8,0.43,-0.69,-1.01,0,*4E
1494565346.38,4853,11.81,72914.5,0.45,-0.73,-0.97,0,*7C
1494565347.57,4854,11.81,72918.3,0.43,-0.81,-0.93,0,*74
1494565348.79,4855,11.81,72914.3,0.43,-0.89,-1.01,0,*47
1494565349.98,4856,11.81,72914.3,0.45,-0.77,-0.89,0,*72
1494565351.16,4857,11.81,72910.8,0.45,-0.77,-0.97,0,*7C
1494565352.38,4858,11.81,72904.5,0.43,-0.89,-1.01,0,*4A
1494565353.57,4859,11.81,72902.8,0.43,-0.81,-1.01,0,*43
1494565354.76,4860,11.81,72890.5,0.45,-0.77,-0.97,0,*78
1494565355.96,4861,11.81,72886.3,0.43,-0.81,-1.01,0,*48
1494565357.17,4862,11.81,72884.5,0.43,-0.89,-1.01,0,*43
1494565358.37,4863,11.81,72884.3,0.43,-0.81,-1.01,0,*4A
1494565359.56,4864,11.81,72884.0,0.45,-0.77,-1.01,0,*42
1494565360.75,4865,11.81,72886.8,0.45,-0.77,-0.97,0,*7D
1494565361.96,4866,11.81,72882.8,0.45,-0.85,-0.97,0,*73
1494565363.16,4867,11.81,72878.5,0.45,-0.77,-1.01,0,*41
1494565364.38,4868,11.81,72878.0,0.45,-0.85,-1.01,0,*43
1494565365.59,4869,11.81,72878.0,0.45,-0.85,-0.97,0,*7C
1494565366.78,4870,11.81,72868.0,0.45,-0.77,-0.97,0,*79
1494565367.97,4871,11.81,72840.3,0.45,-0.77,-0.97,0,*78
1494565369.16,4872,11.81,72848.3,0.45,-0.77,-0.97,0,*7B
1494565370.35,4873,11.81,72860.5,0.45,-0.77,-0.97,0,*7A
1494565371.54,4874,11.81,72882.5,0.45,-0.77,-0.97,0,*7D
1494565372.76,4875,11.81,72894.5,0.45,-0.85,-1.01,0,*4F
1494565373.97,4876,11.81,72888.8,0.45,-0.85,-1.01,0,*4C
1494565375.19,4877,11.81,72888.8,0.45,-0.85,-1.01,0,*4D
1494565376.41,4878,11.81,72894.8,0.45,-0.85,-1.01,0,*42
1494565377.63,4879,11.81,72894.8,0.45,-0.85,-1.01,0,*43
1494565378.82,4880,11.81,72886.8,0.45,-0.77,-0.97,0,*76
1494565380.04,4881,11.81,72884.8,0.45,-0.85,-0.97,0,*7A
1494565381.24,4882,11.81,72884.0,0.43,-0.89,-0.93,0,*77
1494565382.46,4883,11.81,72888.0,0.45,-0.85,-0.97,0,*78
1494565383.65,4884,11.81,72884.5,0.45,-0.77,-0.89,0,*7D
1494565384.84,4885,11.81,72892.5,0.45,-0.77,-0.97,0,*73
1494565386.05,4886,11.81,72902.8,0.45,-0.89,-0.97,0,*71
1494565387.24,4887,11.81,72900.5,0.45,-0.77,-0.97,0,*71
1494565388.45,4888,11.81,72904.8,0.45,-0.85,-0.97,0,*73
1494565389.67,4889,11.81,72906.8,0.43,-0.89,-1.01,0,*46
1494565390.86,4890,11.81,72904.0,0.43,-0.81,-1.01,0,*46
1494565392.05,4891,11.81,72910.3,0.43,-0.81,-1.01,0,*47
1494565393.27,4892,11.81,72908.8,0.45,-0.89,-1.01,0,*4A
1494565394.49,4893,11.81,72906.8,0.45,-0.85,-0.97,0,*79
1494565395.7,4894,11.81,72894.5,0.45,-0.85,-0.97,0,*7E
1494565396.91,4895,11.81,72900.8,0.45,-0.85,-0.97,0,*7F
1494565398.1,4896,11.81,72902.3,0.45,-0.77,-0.97,0,*71
1494565399.3,4897,11.81,72904.5,0.43,-0.81,-1.01,0,*41
1494565400.49,4898,11.81,72896.8,0.45,-0.77,-0.97,0,*7F
1494565401.7,4899,11.81,72896.3,0.45,-0.85,-0.97,0,*73
1494565402.9,4900,11.81,72892.3,0.45,-0.77,-1.01,0,*41
1494565404.09,4901,11.81,72894.8,0.45,-0.77,-1.01,0,*40
1494565405.31,4902,11.81,72898.8,0.45,-0.85,-1.01,0,*4E
1494565406.53,4903,11.81,72898.5,0.43,-0.89,-1.01,0,*45
1494565407.74,4904,11.81,72898.0,0.43,-0.89,-1.01,0,*42
1494565408.96,4905,11.81,72888.5,0.43,-0.89,-1.01,0,*43
1494565410.17,4906,11.81,72890.8,0.43,-0.89,-1.01,0,*40
1494565411.38,4907,11.81,72888.8,0.45,-0.85,-0.97,0,*75
1494565412.6,4908,11.81,72892.0,0.45,-0.85,-0.97,0,*7A
1494565413.79,4909,11.81,72884.5,0.45,-0.77,-0.97,0,*76
1494565414.98,4910,11.81,72890.3,0.45,-0.77,-0.97,0,*7E
1494565416.17,4911,11.81,72880.3,0.45,-0.77,-0.97,0,*7F
1494565417.38,4912,11.81,72874.8,0.45,-0.85,-0.97,0,*71
1494565418.57,4913,11.81,72896.0,0.45,-0.77,-0.97,0,*7D
1494565419.78,4914,11.81,72890.0,0.45,-0.85,-0.97,0,*77
1494565421.0,4915,11.81,72880.8,0.45,-0.85,-0.97,0,*76
1494565422.21,4916,11.81,72878.8,0.45,-0.85,-0.97,0,*75
1494565423.4,4917,11.81,72862.0,0.45,-0.77,-0.89,0,*76
1494565424.59,4918,11.81,72852.5,0.45,-0.77,-0.97,0,*76
1494565425.8,4919,11.81,72854.5,0.45,-0.85,-0.97,0,*7A
1494565426.99,4920,11.81,72874.5,0.45,-0.77,-0.89,0,*72
1494565428.2,4921,11.81,72888.5,0.45,-0.85,-0.97,0,*71
1494565429.39,4922,11.81,72882.8,0.45,-0.77,-0.97,0,*7F
1494565430.61,4923,11.81,72890.5,0.45,-0.85,-1.01,0,*4D
1494565431.83,4924,11.81,72888.0,0.45,-0.85,-1.01,0,*4A
1494565433.05,4925,11.81,72890.0,0.45,-0.85,-1.01,0,*4B
1494565434.27,4926,11.81,72880.5,0.45,-0.85,-1.09,0,*40
1494565435.49,4927,11.81,72898.5,0.45,-0.89,-1.01,0,*45
1494565436.73,4928,11.81,72876.8,0.47,-0.89,-1.01,0,*48
1494565437.96,4929,11.81,72912.8,0.45,-0.97,-1.01,0,*44
1494565439.18,4930,11.81,72904.0,0.45,-0.89,-1.01,0,*43
1494565440.4,4931,11.81,72884.3,0.45,-0.97,-1.01,0,*4D
1494565441.62,4932,11.81,72874.0,0.45,-0.97,-1.01,0,*4E
1494565442.84,4933,11.81,72888.5,0.45,-0.97,-1.01,0,*4F
1494565444.07,4934,11.81,72892.8,0.45,-0.97,-1.01,0,*48
1494565445.29,4935,11.81,72910.5,0.45,-0.89,-1.01,0,*46
1494565446.5,4936,11.81,72896.8,0.45,-0.89,-1.01,0,*45
1494565447.73,4937,11.81,72864.8,0.45,-0.97,-1.01,0,*4B
1494565448.95,4938,11.81,72908.3,0.45,-0.97,-1.01,0,*44
1494565450.17,4939,11.81,72902.5,0.45,-0.89,-1.01,0,*4A
1494565451.39,4940,11.81,72910.5,0.45,-0.89,-1.01,0,*44
1494565452.61,4941,11.81,72902.8,0.45,-0.97,-1.01,0,*4A
1494565453.83,4942,11.81,72896.0,0.45,-0.89,-1.09,0,*4E
1494565455.05,4943,11.81,72900.8,0.45,-0.89,-1.01,0,*47
1494565456.27,4944,11.81,72908.3,0.45,-0.97,-1.01,0,*4F
1494565457.49,4945,11.81,72904.3,0.45,-0.89,-1.09,0,*49
1494565458.71,4946,11.81,72892.8,0.45,-0.97,-1.01,0,*4D
1494565459.94,4947,11.81,72888.0,0.43,-1.01,-1.05,0,*70
1494565461.19,4948,11.81,72888.5,0.41,-1.01,-1.05,0,*7D
1494565462.41,4949,11.81,72900.0,0.43,-1.01,-1.05,0,*7E
1494565463.64,4950,11.81,72900.5,0.43,-1.01,-1.05,0,*76
1494565464.85,4951,11.81,72896.5,0.45,-0.89,-1.09,0,*4C
1494565466.06,4952,11.81,72900.8,0.43,-0.93,-1.13,0,*49
1494565467.28,4953,11.81,72916.8,0.43,-1.01,-1.13,0,*72
1494565468.5,4954,11.81,72898.0,0.43,-1.01,-1.13,0,*75
1494565469.72,4955,11.81,72892.0,0.45,-0.97,-1.09,0,*47
1494565470.94,4956,11.81,72900.8,0.45,-0.97,-1.09,0,*44
1494565472.16,4957,11.81,72914.0,0.45,-0.97,-1.09,0,*45
1494565473.39,4958,11.81,72908.8,0.45,-0.97,-1.09,0,*4A
1494565474.61,4959,11.81,72904.0,0.45,-0.97,-1.01,0,*43
1494565475.83,4960,11.81,72900.3,0.45,-0.97,-1.09,0,*41
1494565477.08,4961,11.81,72910.5,0.47,-0.97,-1.09,0,*42
1494565478.3,4962,11.81,72898.3,0.45,-0.97,-1.09,0,*43
1494565479.52,4963,11.81,72892.5,0.45,-0.97,-1.09,0,*42
1494565480.76,4964,11.81,72904.5,0.47,-0.97,-1.13,0,*4C
1494565481.98,4965,11.81,72896.8,0.45,-1.01,-1.13,0,*71
1494565483.21,4966,11.81,72900.0,0.45,-1.01,-1.13,0,*72
1494565484.43,4967,11.81,72916.5,0.45,-1.01,-1.13,0,*73
1494565485.65,4968,11.81,72908.3,0.45,-1.01,-1.13,0,*7C
1494565486.86,4969,11.81,72910.3,0.45,-1.05,-1.17,0,*7D
1494565488.11,4970,11.81,72914.3,0.47,-1.01,-1.13,0,*77
1494565489.33,4971,11.81,72900.8,0.45,-1.09,-1.13,0,*7C
1494565490.53,4972,11.81,72894.5,0.45,-1.01,-1.17,0,*73
1494565491.73,4973,11.81,72880.5,0.45,-1.01,-1.17,0,*72
1494565492.93,4974,11.81,72882.8,0.45,-1.01,-1.17,0,*75
1494565494.14,4975,11.81,72906.8,0.45,-1.01,-1.17,0,*74
1494565495.34,4976,11.81,72910.8,0.45,-1.01,-1.17,0,*77
1494565496.59,4977,11.81,72914.3,0.47,-1.01,-1.13,0,*70
1494565497.79,4978,11.81,72892.5,0.45,-1.09,-1.17,0,*71
1494565499.01,4979,11.81,72892.8,0.47,-1.09,-1.17,0,*72
1494565500.24,4980,11.81,72900.0,0.47,-1.01,-1.17,0,*7C
1494565501.46,4981,11.81,72882.8,0.45,-1.09,-1.13,0,*73
1494565502.66,4982,11.81,72888.3,0.45,-1.09,-1.17,0,*74
1494565503.86,4983,11.81,72922.3,0.45,-1.01,-1.25,0,*7C
1494565505.07,4984,11.81,72906.5,0.47,-1.09,-1.25,0,*71
1494565506.28,4985,11.81,72892.5,0.45,-1.01,-1.17,0,*7B
1494565507.5,4986,11.81,72902.0,0.47,-1.09,-1.25,0,*73
1494565508.72,4987,11.81,72900.8,0.47,-1.09,-1.29,0,*7E
1494565509.92,4988,11.81,72894.0,0.45,-1.01,-1.17,0,*76
1494565511.12,4989,11.81,72906.5,0.45,-1.09,-1.25,0,*7E
1494565512.37,4990,11.81,72898.8,0.47,-1.01,-1.13,0,*79
1494565513.57,4991,11.81,72888.3,0.45,-1.09,-1.17,0,*76
1494565514.79,4992,11.81,72898.0,0.47,-1.09,-1.25,0,*76
1494565515.99,4993,11.81,72898.5,0.45,-1.09,-1.29,0,*79
1494565517.19,4994,11.81,72894.3,0.45,-1.13,-1.25,0,*79
1494565518.41,4995,11.81,72894.8,0.47,-1.13,-1.29,0,*76
1494565519.63,4996,11.81,72900.0,0.47,-1.09,-1.29,0,*7E
1494565520.83,4997,11.81,72904.8,0.45,-1.01,-1.25,0,*79
1494565522.06,4998,11.81,72900.0,0.47,-1.13,-1.25,0,*77
1494565523.26,4999,11.81,72898.5,0.45,-1.13,-1.29,0,*78
1494565524.48,5000,11.81,72892.5,0.47,-1.09,-1.25,0,*75
1494565525.68,5001,11.81,72892.0,0.45,-1.09,-1.29,0,*7A
1494565526.88,5002,11.81,72894.3,0.45,-1.13,-1.29,0,*72
1494565528.08,5003,11.81,72890.3,0.45,-1.09,-1.25,0,*74
1494565529.28,5004,11.81,72890.5,0.45,-1.13,-1.29,0,*74
1494565530.48,5005,11.81,72888.3,0.47,-1.17,-1.25,0,*7F
1494565531.68,5006,11.81,72884.8,0.45,-1.13,-1.25,0,*7A
1494565532.86,5007,11.81,72888.5,0.45,-1.17,-1.25,0,*7F
1494565534.06,5008,11.81,72890.5,0.45,-1.13,-1.29,0,*78
1494565535.29,5009,11.81,72890.8,0.47,-1.13,-1.29,0,*7B
1494565536.49,5010,11.81,72896.8,0.45,-1.13,-1.29,0,*71
1494565537.71,5011,11.81,72896.0,0.47,-1.09,-1.29,0,*79
1494565538.91,5012,11.81,72898.5,0.45,-1.09,-1.25,0,*74
1494565540.13,5013,11.81,72888.8,0.47,-1.13,-1.25,0,*7C
1494565541.34,5014,11.81,72888.3,0.45,-1.13,-1.29,0,*75
1494565542.54,5015,11.81,72886.3,0.45,-1.09,-1.29,0,*7F
1494565543.73,5016,11.81,72888.0,0.45,-1.09,-1.25,0,*70
1494565544.93,5017,11.81,72884.3,0.45,-1.09,-1.25,0,*71
1494565546.12,5018,11.81,72884.3,0.45,-1.09,-1.25,0,*7E
1494565547.32,5019,11.81,72876.3,0.45,-1.01,-1.25,0,*77
1494565548.52,5020,11.81,72874.3,0.45,-1.01,-1.25,0,*7D
1494565549.72,5021,11.81,72866.8,0.45,-1.09,-1.25,0,*74
1494565550.92,5022,11.81,72870.3,0.45,-1.01,-1.25,0,*7F
1494565552.12,5023,11.81,72864.3,0.45,-1.09,-1.17,0,*77
1494565553.31,5024,11.81,72862.0,0.45,-1.09,-1.25,0,*71
1494565554.51,5025,11.81,72850.5,0.45,-1.09,-1.25,0,*70
1494565555.71,5026,11.81,72854.3,0.45,-1.13,-1.25,0,*78
1494565556.89,5027,11.81,72856.0,0.45,-1.17,-1.29,0,*71
1494565558.11,5028,11.81,72854.8,0.47,-1.09,-1.25,0,*7F
1494565559.31,5029,11.81,72856.0,0.45,-1.13,-1.25,0,*77
1494565560.51,5030,11.81,72870.3,0.45,-1.13,-1.25,0,*7F
1494565561.7,5031,11.81,72878.5,0.45,-1.09,-1.25,0,*75
1494565562.9,5032,11.81,72872.8,0.45,-1.09,-1.17,0,*77
1494565564.1,5033,11.81,72884.0,0.45,-1.09,-1.25,0,*77
1494565565.3,5034,11.81,72890.5,0.45,-1.09,-1.25,0,*70
1494565566.49,5035,11.81,72888.0,0.45,-1.13,-1.25,0,*7A
1494565567.68,5036,11.81,72888.5,0.45,-1.17,-1.29,0,*71
1494565568.88,5037,11.81,72884.5,0.45,-1.13,-1.25,0,*78
1494565570.07,5038,11.81,72884.3,0.45,-1.13,-1.25,0,*77
1494565571.28,5039,11.81,72894.5,0.45,-1.13,-1.17,0,*77
1494565572.48,5040,11.81,72898.5,0.45,-1.13,-1.29,0,*74
1494565573.66,5041,11.81,72906.8,0.45,-1.17,-1.25,0,*7D
1494565574.88,5042,11.81,72910.5,0.47,-1.13,-1.25,0,*78
1494565576.09,5043,11.81,72900.3,0.47,-1.17,-1.25,0,*7D
1494565577.27,5044,11.81,72906.5,0.45,-1.17,-1.29,0,*74
1494565578.49,5045,11.81,72902.8,0.47,-1.13,-1.25,0,*7F
1494565579.69,5046,11.81,72896.3,0.45,-1.13,-1.25,0,*7E
1494565580.91,5047,11.81,72902.3,0.45,-1.13,-1.13,0,*7A
1494565582.11,5048,11.81,72902.3,0.45,-1.13,-1.17,0,*71
1494565583.32,5049,11.81,72904.3,0.45,-1.13,-1.17,0,*70
1494565584.52,5050,11.81,72900.0,0.45,-1.09,-1.17,0,*73
1494565585.72,5051,11.81,72906.8,0.45,-1.13,-1.25,0,*78
1494565586.92,5052,11.81,72912.8,0.45,-1.13,-1.17,0,*7A
1494565588.14,5053,11.81,72896.5,0.45,-1.13,-1.13,0,*7F
1494565589.36,5054,11.81,72902.8,0.45,-1.13,-1.13,0,*78
1494565590.57,5055,11.81,72892.5,0.45,-1.13,-1.17,0,*7D
1494565591.76,5056,11.81,72882.8,0.45,-1.13,-1.25,0,*7F
1494565592.99,5057,11.81,72876.3,0.47,-1.09,-1.17,0,*76
1494565594.18,5058,11.81,72878.5,0.45,-1.09,-1.25,0,*7A
1494565595.4,5059,11.81,72872.0,0.47,-1.09,-1.25,0,*79
1494565596.62,5060,11.81,72878.0,0.47,-1.09,-1.25,0,*73
1494565597.83,5061,11.81,72876.3,0.47,-1.17,-1.25,0,*7D
1494565599.05,5062,11.81,72882.3,0.47,-1.13,-1.17,0,*7B
1494565600.24,5063,11.81,72884.3,0.45,-1.17,-1.17,0,*7C
1494565601.44,5064,11.81,72884.0,0.45,-1.13,-1.25,0,*7E
1494565602.61,5065,11.81,72888.5,0.45,-1.17,-1.25,0,*7B
1494565603.82,5066,11.81,72886.5,0.45,-1.13,-1.17,0,*7D
1494565605.02,5067,11.81,72902.3,0.45,-1.13,-1.25,0,*7D
1494565606.24,5068,11.81,72900.0,0.47,-1.13,-1.25,0,*70
1494565607.44,5069,11.81,72908.8,0.47,-1.17,-1.25,0,*75
1494565608.67,5070,11.81,72910.8,0.47,-1.13,-1.25,0,*79
1494565609.86,5071,11.81,72898.3,0.47,-1.25,-1.25,0,*7D
1494565611.07,5072,11.81,72898.5,0.47,-1.17,-1.29,0,*73
1494565612.29,5073,11.81,72896.5,0.47,-1.13,-1.25,0,*7A
1494565613.48,5074,11.81,72900.5,0.45,-1.17,-1.29,0,*77
1494565614.67,5075,11.81,72900.5,0.45,-1.13,-1.25,0,*7E
1494565615.9,5076,11.81,72894.8,0.47,-1.09,-1.17,0,*75
1494565617.12,5077,11.81,72898.0,0.47,-1.13,-1.25,0,*7E
1494565618.32,5078,11.81,72892.5,0.47,-1.17,-1.25,0,*75
1494565619.55,5079,11.81,72888.5,0.51,-1.09,-1.21,0,*78
1494565620.77,5080,11.81,72896.5,0.47,-1.09,-1.17,0,*7C
1494565622.0,5081,11.81,72904.3,0.47,-1.13,-1.17,0,*76
1494565623.2,5082,11.81,72898.3,0.47,-1.17,-1.25,0,*70
1494565624.45,5083,11.81,72902.8,0.47,-1.13,-1.13,0,*70
1494565625.68,5084,11.81,72902.3,0.47,-1.13,-1.29,0,*7E
1494565626.93,5085,11.81,72894.3,0.51,-1.05,-1.13,0,*76
1494565628.15,5086,11.81,72880.8,0.51,-1.05,-1.25,0,*70
1494565629.37,5087,11.81,72880.3,0.51,-1.13,-1.25,0,*76
1494565630.6,5088,11.81,72890.5,0.51,-1.09,-1.21,0,*76
1494565631.83,5089,11.81,72878.8,0.51,-1.05,-1.21,0,*7B
1494565633.08,5090,11.81,72884.5,0.51,-1.05,-1.13,0,*72
1494565634.33,5091,11.81,72886.5,0.51,-0.97,-1.13,0,*49
1494565635.57,5092,11.81,72886.0,0.51,-0.97,-1.09,0,*41
1494565636.82,5093,11.81,72882.0,0.51,-0.97,-1.09,0,*40
1494565638.06,5094,11.81,72888.3,0.51,-0.97,-1.13,0,*4C
1494565639.31,5095,11.81,72886.8,0.51,-1.05,-1.09,0,*7C
1494565640.56,5096,11.81,72884.0,0.51,-0.97,-1.05,0,*49
1494565641.8,5097,11.81,72898.3,0.51,-0.93,-1.05,0,*4C
1494565643.05,5098,11.81,72894.3,0.51,-0.97,-1.09,0,*4B
1494565644.26,5099,11.81,72898.8,0.53,-0.97,-1.09,0,*48
1494565645.49,5100,11.81,72898.5,0.53,-1.05,-1.09,0,*73
1494565646.74,5101,11.81,72900.5,0.51,-1.05,-1.13,0,*7B
1494565647.97,5102,11.81,72898.5,0.51,-1.05,-1.21,0,*79
1494565649.19,5103,11.81,72902.0,0.51,-0.97,-1.21,0,*42
1494565650.44,5104,11.81,72902.5,0.51,-0.97,-1.13,0,*44
1494565651.68,5105,11.81,72896.3,0.51,-0.97,-1.09,0,*4E
1494565652.9,5106,11.81,72900.8,0.53,-0.93,-1.05,0,*47
1494565654.13,5107,11.81,72896.0,0.51,-0.93,-0.97,0,*7E
1494565655.33,5108,11.81,72892.0,0.53,-0.93,-0.97,0,*73
1494565656.54,5109,11.81,72896.5,0.53,-0.93,-0.97,0,*72
1494565657.75,5110,11.81,72896.0,0.51,-0.73,-0.85,0,*75
1494565658.94,5111,11.81,72894.3,0.51,-0.61,-0.81,0,*73
1494565660.12,5112,11.81,72894.5,0.53,-0.69,-0.85,0,*7E
1494565661.28,5113,11.81,72892.0,0.53,-0.61,-0.73,0,*7E
1494565662.46,5114,11.81,72896.5,0.53,-0.69,-0.85,0,*78
1494565663.62,5115,11.81,72900.0,0.53,-0.61,-0.73,0,*78
1494565664.81,5116,11.81,72900.3,0.51,-0.61,-0.73,0,*79
1494565666.0,5117,11.81,72896.0,0.51,-0.49,-0.73,0,*72
1494565667.17,5118,11.81,72900.5,0.53,-0.57,-0.73,0,*70
1494565668.33,5119,11.81,72898.5,0.53,-0.57,-0.73,0,*71
1494565669.5,5120,11.81,72904.5,0.53,-0.57,-0.73,0,*7B
1494565670.66,5121,11.81,72904.8,0.53,-0.57,-0.69,0,*71
1494565671.82,5122,11.81,72898.5,0.53,-0.49,-0.69,0,*7D
1494565672.98,5123,11.81,72900.3,0.53,-0.49,-0.69,0,*7C
1494565674.14,5124,11.81,72904.8,0.53,-0.45,-0.69,0,*77
1494565675.3,5125,11.81,72900.8,0.53,-0.57,-0.69,0,*75
1494565676.46,5126,11.81,72898.0,0.53,-0.57,-0.69,0,*76
1494565677.62,5127,11.81,72898.0,0.53,-0.49,-0.69,0,*78
1494565678.78,5128,11.81,72900.3,0.53,-0.49,-0.61,0,*7F
1494565679.93,5129,11.81,72910.0,0.53,-0.49,-0.61,0,*7E
1494565681.09,5130,11.81,72914.3,0.53,-0.57,-0.69,0,*71
1494565682.28,5131,11.81,72904.8,0.55,-0.45,-0.57,0,*78
1494565683.43,5132,11.81,72906.0,0.53,-0.49,-0.61,0,*74
1494565684.59,5133,11.81,72910.0,0.53,-0.49,-0.61,0,*75
1494565685.75,5134,11.81,72896.5,0.53,-0.37,-0.57,0,*7E
1494565686.91,5135,11.81,72898.0,0.53,-0.33,-0.57,0,*7B
1494565688.07,5136,11.81,72894.3,0.53,-0.33,-0.49,0,*77
1494565689.23,5137,11.81,72896.3,0.53,-0.37,-0.57,0,*7D
1494565690.42,5138,11.81,72900.0,0.55,-0.33,-0.53,0,*74
1494565691.6,5139,11.81,72900.3,0.55,-0.33,-0.53,0,*75
1494565692.78,5140,11.81,72900.3,0.55,-0.33,-0.53,0,*7B
1494565693.97,5141,11.81,72904.8,0.55,-0.33,-0.57,0,*7E
1494565695.15,5142,11.81,72910.0,0.55,-0.33,-0.45,0,*7E
1494565696.34,5143,11.81,72916.0,0.55,-0.41,-0.53,0,*7D
1494565697.51,5144,11.81,72920.8,0.57,-0.41,-0.65,0,*7D
1494565698.7,5145,11.81,72916.8,0.55,-0.41,-0.53,0,*7B
1494565699.88,5146,11.81,72920.0,0.55,-0.33,-0.57,0,*79
1494565701.07,5147,11.81,72914.0,0.55,-0.33,-0.53,0,*7C
1494565702.22,5148,11.81,72914.0,0.57,-0.33,-0.53,0,*71
1494565703.41,5149,11.81,72920.5,0.55,-0.29,-0.45,0,*7E
1494565704.59,5150,11.81,72926.5,0.55,-0.33,-0.53,0,*7A
1494565705.78,5151,11.81,72920.5,0.55,-0.33,-0.45,0,*7C
1494565706.96,5152,11.81,72924.5,0.55,-0.29,-0.33,0,*75
1494565708.15,5153,11.81,72916.0,0.55,-0.33,-0.53,0,*79
1494565709.33,5154,11.81,72906.0,0.55,-0.33,-0.57,0,*7A
1494565710.52,5155,11.81,72906.0,0.55,-0.33,-0.57,0,*7B
1494565711.71,5156,11.81,72906.0,0.55,-0.41,-0.57,0,*7D
1494565712.87,5157,11.81,72910.0,0.57,-0.41,-0.69,0,*73
1494565714.06,5158,11.81,72908.3,0.55,-0.45,-0.57,0,*77